Regional Weather Roundup
Issued by NWS

Home | Current Version | Previous Version | Text Only | Print | Product List | Glossary Off
Versions: 1 2 3 4 5 6 7 8 9 10 11 12 13 14 15 16 17 18 19 20 21 22 23 24 25 26 27 28 29 30 31 32 33 34 35 36 37 38 39 40 41 42 43 44 45 46 47 48 49 50

000
ASUS43 KTOP 190759
RWRKS

WEATHER ROUNDUP FOR KANSAS
NATIONAL WEATHER SERVICE GOODLAND KS
300 AM CDT TUE SEP 19 2017

NOTE:  "FAIR" INDICATES FEW OR NO CLOUDS BELOW 12,000 FEET WITH NO
SIGNIFICANT WEATHER AND/OR OBSTRUCTIONS TO VISIBILITY.

KSZ001>006-013>018-027>032-041>047-190900-
NORTHWEST KANSAS

CITY           SKY/WX    TMP DP  RH WIND       PRES   REMARKS
GOODLAND       CLEAR     59  55  87 S10       29.81F
HAYS           CLEAR     69  64  84 S12       29.83F
HILL CITY      CLEAR     67  63  87 S6        29.82F
RUSSELL        CLEAR     69  63  81 S12       29.82F
$$

KSZ061>065-074>080-084>089-190900-
SOUTHWEST KANSAS

CITY           SKY/WX    TMP DP  RH WIND       PRES   REMARKS
DODGE CITY     CLEAR     69  65  86 S15       29.87F
ELKHART          N/A     63  64 100 S12         N/A
GARDEN CITY    CLEAR     66  63  90 SE12      29.85F
GREAT BEND     CLEAR     69  65  86 S12       29.86S
LIBERAL        CLEAR     67  64  90 S13       29.86F
$$

KSZ066>073-081>083-090>101-190900-
SOUTHEAST KANSAS

CITY           SKY/WX    TMP DP  RH WIND       PRES   REMARKS
CHANUTE        PTCLDY    69  66  90 S6        29.90F
COFFEYVILLE    MOCLDY    69  65  86 S5        29.89S
HUTCHINSON     CLEAR     67  66  97 SE6       29.87F
MEDICINE LODGE   N/A     70  65  84 SE7       29.86F
NEWTON         CLEAR     66  65  96 SE6       29.89F
WICHITA INTL   PTCLDY    68  67  96 S7        29.87F
WICHITA JABRA  CLEAR     70  68  93 S8        29.88F
WINFIELD       PTCLDY    70  68  93 SE5       29.89F
$$

KSZ007>012-019>026-033>040-048>060-102>105-190900-
NORTHEAST KANSAS

CITY           SKY/WX    TMP DP  RH WIND       PRES   REMARKS
CONCORDIA      CLEAR     67  65  93 S12       29.83F
EMPORIA        PTCLDY    69  65  86 S9        29.88F
LAWRENCE       MOCLDY    67  67 100 NE3       29.89F
MANHATTAN      CLEAR     72  66  81 S8        29.85F
OLATHE IND     MOCLDY    66  65  96 SE6       29.91F
OLATHE EXE     MOCLDY    65  65 100 S5        29.91F FOG
SALINA         CLEAR     72  66  81 S9        29.85S
TOPEKA BILLARD PTCLDY    68  67  96 E5        29.87F
TOPEKA FORBES  MOCLDY    68  67  96 SE6       29.88F
$$




USA.gov is the U.S. government's official web portal to all federal, state and local government web resources and services.